Location: Dehesa de la Cepeda
(40.6574°N, 4.3013°W)
Time: 03:45:12
(UTC+00:00)

BREEZE-M R/B - Pass Details

Date: 05 July 2020
Orbit: 311 x 4532 km, 49.7° (Epoch: 11 August)

Event Time Altitude Azimuth Distance (km) Brightness Sun altitude
Rises 22:05:51 0° 301° (WNW) 6,206 9.3 -19.2°
Reaches altitude 10° 22:10:58 10° 302° (WNW) 4,461 8.3 -19.7°
Maximum altitude 22:21:21 88° 29° (NNE) 1,020 4.0 -20.7°
Enters shadow 22:23:32 39° 122° (ESE) 1,240 4.1 -20.9°
